Regional Weather Roundup
Issued by NWS

Home | Current Version | Previous Version | Text Only | Print | Product List | Glossary Off
Versions: 1 2 3 4 5 6 7 8 9 10 11 12 13 14 15 16 17 18 19 20 21 22 23 24 25 26 27 28 29 30 31 32 33 34 35 36 37 38 39 40 41 42 43 44 45 46 47 48 49 50

000
ASUS43 KDTX 240210
RWRMI
MICHIGAN HOURLY REGIONAL WEATHER ROUNDUP
NATIONAL WEATHER SERVICE DETROIT/PONTIAC MI
1000 PM EDT THU OCT 23 2014

NOTE: "FAIR" INDICATES FEW OR NO CLOUDS BELOW 12,000 FEET WITH NO
SIGNIFICANT WEATHER AND/OR OBSTRUCTION TO VISIBILITY.

MIZ047>049-052>055-059>063-066>070-074>076-081>083-240300-
SOUTHEAST LOWER MICHIGAN

CITY           SKY/WX    TMP DP  RH WIND       PRES   REMARKS
ADRIAN         PTCLDY    42  37  82 CALM      30.12F
ALMA           PTCLDY    38  36  93 CALM      30.11S
ANN ARBOR      CLEAR     36  33  89 CALM      30.10F
BAD AXE        FOG       31  31 100 CALM      30.12R VSB 1/4
CARO           CLEAR     33  33  99 CALM      30.11S FOG
DETROIT CITY   CLEAR     46  39  76 CALM      30.12R
DETROIT        MOCLDY    46  40  79 CALM      30.12S
FLINT          PTCLDY    40  35  83 CALM      30.11F
GROSSE ILE     CLEAR     46  43  87 CALM      30.10S
HILLSDALE      MOCLDY    39  37  93 CALM      30.11S
HOWELL         PTCLDY    39  36  88 CALM      30.10S

CITY           SKY/WX    TMP DP  RH WIND       PRES   REMARKS
JACKSON        MOCLDY    38  35  89 SW5       30.11R WCI  34
LAMBERTVILLE   PTCLDY    41  37  87 CALM      30.12F FOG
LANSING        MOCLDY    42  35  76 CALM      30.12R
LAPEER         FAIR      34  33  96 CALM      30.11F
MASON          MOCLDY    40  36  86 CALM      30.11S
MONROE         CLEAR     41  39  93 CALM      30.10S
MT. CLEMENS    CLEAR     41  40  96 N3        30.09R
PONTIAC        PTCLDY    39  36  89 CALM      30.10S
PORT HOPE        N/A     37  34  89 CALM      30.09S
PORT HURON     FOG       36  36 100 CALM      30.11S VSB 1
TRI CITIES     PTCLDY    43  36  76 CALM      30.11F
TROY           CLEAR     46  36  68 CALM      30.12F
SAGINAW HB     PTCLDY    37  37 100 CALM      30.10F
$$
MIZ043>046-050>051-056>058-064>065-071>073-077>080-240300-
SOUTHWEST LOWER MICHIGAN

CITY           SKY/WX    TMP DP  RH WIND       PRES   REMARKS
BATTLE CREEK   CLOUDY    46  38  73 S3        30.11F
BENTON HARBOR  CLOUDY    48  41  76 S3        30.10S
BIG RAPIDS     MOCLDY    42  42 100 CALM      30.09S
COLDWATER      MOCLDY    42  39  92 CALM      30.11S
FREMONT        MOCLDY    47  43  85 CALM      30.08F
HOLLAND        CLOUDY    50  44  80 SE3       30.10S
GRAND RAPIDS   CLOUDY    48  40  73 S6        30.10F
IONIA          FAIR      45  38  77 CALM      30.09F
KALAMAZOO      CLOUDY    48  40  73 CALM      30.11S
LUDINGTON      LGT RAIN  49  45  85 S5        30.09S
MARSHALL       MOCLDY    40  37  88 CALM      30.10F
MOUNT PLEASANT PTCLDY    38  36  93 CALM      30.09F
MUSKEGON       CLOUDY    50  43  77 CALM      30.10S
SOUTH HAVEN    CLOUDY    47  43  88 CALM      30.10S
$$
MIZ016>042-240300-
NORTHERN LOWER MICHIGAN

CITY           SKY/WX    TMP DP  RH WIND       PRES   REMARKS
ALPENA         PTCLDY    32  32 100 CALM      30.09S FOG
BEAVER ISLAND  MOCLDY    44  43  97 CALM      30.07S
BELLAIRE       MOCLDY    41  39  92 CALM      30.08S
CADILLAC       CLOUDY    46  41  84 CALM      30.08R
CHARLEVOIX     MOCLDY    45  44  95 SE3       30.10S
FRANKFORT      CLOUDY    52  43  72 S5        30.07F
GAYLORD        PTCLDY    38  34  85 S6        30.08S WCI  33
GRAYLING       PTCLDY    34  34  99 CALM      30.09F
HARBOR SPRINGS PTCLDY    41  38  91 CALM      30.08R
HOUGHTON LAKE  PTCLDY    32  30  92 CALM      30.09S
OSCODA         CLEAR     32  31  96 SW6       30.10R WCI  27
PELLSTON       PTCLDY    35  33  92 CALM      30.08F
ROGERS CITY    CLEAR     41  39  93 CALM      30.09S
TRAVERSE CITY  CLOUDY    48  39  71 S3        30.07R
$$
MIZ007>008-015-240300-
EASTERN UPPER MICHIGAN

CITY           SKY/WX    TMP DP  RH WIND       PRES   REMARKS
KINROSS        CLOUDY    39  39 100 S3        30.07S
MACKINAC ISLAN PTCLDY    45  42  91 SE7       30.07S
NEWBERRY       CLOUDY    45  43  94 S3        30.04F
S. S. MARIE    PTCLDY    39  35  86 CALM      30.07S
MUNISING         N/A     51  45  79 S8        30.01R
$$
MIZ004>006-011>014-085-240300-
CENTRAL UPPER MICHIGAN

CITY           SKY/WX    TMP DP  RH WIND       PRES   REMARKS
MANISTIQUE     CLOUDY    50  47  89 SW8       30.04S
ESCANABA       CLOUDY    48  45  87 SW6       30.03S
MENOMINEE      MOCLDY    48  45  87 CALM      30.04R
SAWYER-GWINN   CLOUDY    46  45  93 S9        30.00S FOG
$$
MIZ001>003-009>011-084-240300-
WESTERN UPPER MICHIGAN

CITY           SKY/WX    TMP DP  RH WIND       PRES   REMARKS
IRON MOUNTAIN  CLOUDY    45  44  97 S5        30.01S FOG
HOUGHTON       FOG       47  45  93 S6        29.96S VSB 3/4
COPPER HARBOR    N/A     48  46  93 SW7       29.96F
IRONWOOD       CLOUDY    46  46 100 S10       29.96S
$$

ABBREVIATIONS USED IN REMARKS
   TC - TEMPERATURE IN CELSIUS
  WCI - WIND CHILL INDEX
   HX - HEAT INDEX
  VSB - VISIBILITY




USA.gov is the U.S. government's official web portal to all federal, state and local government web resources and services.